Temperature
18 18 18 18 18 18 18 18 18 18 18 18 18 18 18 18 18 18 18 18 18 18 18 18 18 18 18 18 18 17 17 17 17 17 17 17 17 17 17 16 16 16 16
18 18 18 18 18 18 18 18 18 18 18 18 18 18 18 18 18 18 18 18 18 18 18 18 18 18 18 18 18 18 17 17 17 17 17 17 17 17 17 17 16 16 16
18 18 18 18 18 18 18 18 18 18 18 18 18 18 18 18 18 18 18 18 18 18 18 18 19 18 18 18 18 18 18 18 17 17 17 17 17 17 17 17 17 16 16
17 17 17 17 18 17 17 17 18 18 18 18 18 18 18 18 18 18 18 18 18 18 18 19 19 19 18 18 18 18 18 18 18 17 17 17 17 17 17 17 17 17 16
17 17 17 17 17 17 17 17 17 17 18 18 18 18 18 18 18 18 18 18 18 18 18 19 19 19 19 18 18 18 18 18 17 17 18 18 18 17 17 17 17 17 17
17 17 17 17 17 17 17 17 17 17 17 18 17 17 18 18 18 18 18 18 18 18 18 19 19 19 19 19 18 18 18 17 17 17 17 18 18 17 17 17 17 17 17
16 16 16 16 17 17 17 17 17 17 17 17 17 17 17 17 18 18 18 18 18 18 18 18 19 19 19 19 18 18 18 17 17 17 17 17 17 17 17 17 17 17 17
16 16 16 16 16 16 16 16 16 16 16 17 16 16 16 17 18 18 18 18 18 18 18 18 18 18 18 18 18 18 18 17 17 17 17 17 17 17 17 17 17 17 17
16 16 16 16 16 16 16 16 16 16 16 16 16 16 16 16 17 17 17 17 17 17 17 17 17 18 18 18 18 18 18 18 17 17 18 18 17 17 17 17 17 17 17
15 16 16 16 16 16 16 16 15 15 15 15 15 15 15 15 15 16 16 16 16 16 16 16 17 17 17 17 17 17 18 18 18 17 17 17 17 17 17 17 17 17 17
15 15 15 15 15 15 15 15 15 15 15 15 15 15 15 15 15 15 15 16 16 16 16 16 16 16 16 16 16 16 17 17 17 17 17 17 17 17 17 17 17 17 17
15 15 15 14 14 14 14 14 14 14 14 14 14 14 14 14 14 15 15 15 15 15 15 15 15 15 15 15 15 16 16 16 16 17 17 17 17 17 17 17 17 16 16
14 14 14 14 14 14 14 14 14 14 14 14 14 14 14 14 14 14 14 14 14 14 14 14 14 14 14 14 14 15 15 15 16 16 16 16 16 16 16 17 16 16 16
14 13 13 13 13 13 13 13 13 14 14 14 14 14 13 13 14 14 14 14 14 13 13 13 13 14 14 14 14 14 15 15 15 15 16 16 16 16 16 16 16 16 16
13 13 13 12 12 13 13 13 13 13 13 13 13 13 13 13 13 13 13 13 14 13 13 13 13 13 13 13 14 14 14 15 15 15 15 15 15 15 15 15 15 15 15
13 13 13 12 12 12 13 13 13 13 13 13 13 13 13 13 13 13 13 13 13 13 13 12 12 12 12 13 13 14 14 14 14 14 14 14 14 14 14 14 14 14 14
13 13 12 12 12 12 12 13 13 13 13 13 13 13 13 13 12 13 13 13 13 13 13 12 12 12 12 12 13 13 13 14 14 13 13 13 13 13 13 13 13 14 14
13 12 12 12 12 12 12 12 13 13 13 13 12 12 12 12 12 12 13 13 13 13 13 12 12 12 12 12 12 13 13 13 13 13 12 12 12 12 13 13 13 13 13
13 12 12 12 12 12 12 12 12 12 12 12 12 12 12 12 12 12 12 12 12 12 12 12 12 12 12 12 12 12 12 12 12 12 12 12 12 12 12 12 12 12 12
12 12 12 12 12 12 12 12 12 12 12 12 12 12 12 12 12 12 12 12 12 12 12 12 12 12 12 12 12 12 11 12 11 11 11 11 11 11 12 12 12 12 12
12 12 12 11 11 11 11 11 11 11 11 11 11 11 11 12 12 12 12 12 12 12 12 12 12 12 11 11 11 11 11 11 11 11 11 11 11 11 11 11 11 11 11
12 12 11 11 11 11 11 11 11 11 11 11 11 11 11 11 11 11 12 12 12 12 12 12 12 11 11 11 11 11 11 11 11 11 11 10 10 10 10 10 10 11 11
12 11 11 11 11 11 11 11 11 11 11 11 11 11 11 11 11 11 11 12 12 12 12 12 11 11 11 11 11 10 10 10 10 10 10 10 10 9 9 9 10 10 10
12 11 11 11 11 11 11 10 10 10 10 11 11 11 11 11 11 11 11 11 11 11 11 11 11 10 10 10 10 10 10 9 9 10 10 9 9 9 9 9 9 9 9
11 11 11 11 11 11 10 10 10 11 11 11 11 11 11 11 11 11 11 11 11 11 10 10 10 10 10 10 10 10 9 9 9 9 9 9 9 8 8 8 8 8 9
11 11 11 11 11 11 10 10 10 11 11 11 11 11 11 11 11 11 11 11 11 10 10 10 10 10 9 9 9 9 9 9 9 8 8 8 8 8 8 8 8 8 8
Wind_Speed
9 8 8 10 11 12 11 9 9 9 9 11 12 12 12 13 13 14 13 18 20 21 20 20 21 21 21 21 22 23 23 23 24 24 24 25 25 25 24 25 25 25 25
9 9 9 8 9 12 13 11 9 9 9 8 10 10 11 12 12 13 14 16 19 20 21 21 21 21 21 21 21 21 21 22 23 24 24 25 25 25 24 24 25 25 25
12 9 10 10 9 13 13 11 10 8 9 8 10 10 8 9 11 12 14 14 15 17 20 21 22 22 22 22 22 22 22 22 23 24 24 25 25 24 23 23 23 23 24
14 10 10 11 10 11 8 9 9 8 9 9 8 8 8 8 11 11 11 13 14 14 17 20 22 22 23 23 23 23 23 22 23 24 25 25 25 25 24 23 23 23 23
11 8 8 9 9 7 8 9 8 7 8 9 8 8 8 9 10 10 11 12 14 15 15 16 20 21 22 23 24 24 23 23 24 24 25 26 26 25 25 24 24 23 23
8 6 6 8 7 7 7 8 9 8 8 8 9 9 8 9 9 10 12 10 11 14 16 16 15 16 20 22 23 24 24 24 24 24 25 26 27 26 25 25 24 24 23
7 5 6 7 6 7 8 8 8 8 7 6 5 6 7 9 11 10 9 9 10 11 12 13 13 14 14 18 20 22 24 24 24 24 24 25 26 26 26 25 24 24 24
7 6 7 7 7 7 9 9 8 6 5 5 5 4 4 4 6 8 7 8 8 7 8 9 10 11 13 13 14 17 19 21 23 24 24 23 23 25 26 25 25 25 25
8 7 8 8 8 8 8 9 8 9 8 6 7 6 5 6 3 3 4 5 5 5 5 6 7 8 9 10 11 13 15 15 16 19 21 22 22 22 24 25 25 25 25
8 8 9 9 9 8 9 10 9 8 9 8 6 8 7 5 4 3 2 3 4 5 5 4 5 5 5 6 6 5 5 5 5 7 11 14 17 19 22 24 26 25 25
8 9 9 9 9 8 10 10 9 9 9 9 7 6 7 7 8 6 5 3 2 3 2 3 4 3 2 2 0 3 4 3 3 3 3 4 7 11 17 22 24 25 26
7 9 9 8 9 8 9 10 9 10 9 10 9 7 6 5 6 7 7 4 2 1 1 2 1 1 1 2 4 7 7 6 6 5 4 4 3 3 6 14 21 24 25
7 9 9 9 8 8 9 8 9 9 9 10 9 7 7 6 4 5 5 3 2 1 1 3 3 3 3 4 5 7 7 7 7 7 7 8 8 8 7 3 2 9 14
7 9 9 9 9 8 7 7 6 7 7 8 8 7 6 6 5 5 4 4 3 2 2 2 3 4 3 4 6 7 6 7 7 8 9 10 11 12 13 13 12 10 7
6 8 9 9 8 8 7 6 5 6 6 7 7 7 5 5 5 5 4 4 4 4 2 2 2 4 4 5 7 7 7 9 9 9 10 11 12 12 13 13 13 13 12
6 8 9 9 8 8 7 5 5 5 5 5 5 6 5 4 4 4 4 3 3 3 3 2 2 3 4 5 9 9 10 12 13 11 11 11 12 13 13 12 12 11 10
5 6 8 8 9 8 7 5 5 4 4 3 3 5 5 4 3 3 3 3 3 4 6 3 3 3 4 6 6 8 10 10 12 15 14 14 14 14 13 13 12 11 10
5 6 6 7 8 7 6 4 3 1 1 2 3 3 3 3 4 3 4 5 5 5 8 7 3 4 5 5 6 8 7 9 10 15 16 16 15 15 15 14 13 12 11
5 5 5 6 6 6 5 4 3 3 4 5 4 4 5 5 6 5 7 8 7 7 6 8 5 3 5 5 6 7 8 7 8 11 13 14 15 15 15 15 14 13 12
4 4 3 4 4 4 4 4 5 6 7 7 7 6 6 6 6 8 9 10 9 9 9 9 7 5 5 4 5 5 6 7 7 7 8 9 12 14 15 15 15 14 13
4 3 2 2 2 3 3 4 5 7 8 9 8 7 7 9 10 9 9 9 10 9 9 9 7 6 4 4 4 3 4 4 6 7 5 6 7 8 10 13 15 15 15
5 3 2 1 2 3 6 7 7 7 8 9 9 8 9 12 15 15 14 11 10 10 9 7 7 7 4 3 3 4 4 4 4 6 5 5 6 8 8 11 15 17 17
7 5 4 4 4 5 8 8 9 7 7 7 7 7 8 9 10 11 13 14 12 11 9 8 9 5 4 2 3 5 5 5 4 4 3 5 5 6 6 11 16 17 18
8 7 6 7 7 7 9 10 11 8 8 7 6 7 8 7 6 10 11 10 9 8 6 6 7 5 3 2 3 3 4 4 3 4 4 4 4 3 4 7 14 17 18
9 8 8 9 9 9 11 12 11 7 8 7 6 6 7 7 8 12 12 11 11 9 10 12 11 10 10 8 5 5 5 6 5 5 5 3 3 2 2 4 8 14 16
11 11 10 10 11 11 13 14 12 8 8 7 6 6 7 8 9 11 11 12 11 7 8 9 10 10 10 11 10 5 4 4 3 3 5 3 3 3 2 2 4 8 11
Wind_Direction
242 245 249 250 250 250 252 254 254 254 252 251 248 246 248 250 251 252 257 262 266 268 269 269 266 266 266 259 252 245 237 230 226 225 226 228 229 228 230 229 224 221 219
239 242 246 246 246 246 247 248 249 253 257 253 253 247 247 249 250 251 254 260 264 267 268 268 267 264 260 254 249 247 240 232 228 226 227 228 230 231 231 230 228 225 222
242 243 246 249 248 247 247 249 251 248 252 251 252 253 251 253 251 250 253 256 260 262 262 262 263 260 255 249 245 244 242 236 230 227 228 229 230 231 230 228 228 226 223
246 247 249 252 250 248 246 248 250 246 245 243 245 246 246 248 249 248 252 255 256 259 261 259 258 256 253 251 247 244 241 238 232 229 228 229 230 230 228 226 226 225 223
253 246 252 258 258 254 251 252 248 239 244 242 241 244 242 242 246 250 248 250 253 255 258 260 257 255 254 253 251 247 244 241 237 232 229 230 230 229 227 226 225 224 221
272 264 263 266 264 261 260 253 253 245 243 244 250 251 241 237 236 241 246 249 253 257 259 259 258 257 254 252 251 248 245 242 240 238 232 230 229 228 226 224 223 221 218
286 278 275 275 269 262 261 258 255 254 250 238 242 256 251 239 238 238 239 244 252 257 259 258 257 255 255 250 248 249 247 243 241 241 237 232 229 226 224 223 220 218 216
290 289 276 274 271 268 265 259 249 249 247 216 216 237 266 269 239 235 232 236 244 250 257 261 259 254 252 248 244 243 247 245 242 240 238 235 231 226 223 221 219 216 215
292 284 279 274 272 265 264 258 247 244 249 236 211 211 221 235 257 256 236 234 233 238 252 262 262 256 251 245 242 238 242 246 246 242 238 237 234 229 223 221 218 215 215
295 292 284 279 274 268 262 259 250 240 241 245 229 220 223 213 219 249 248 237 238 244 256 269 269 262 258 249 240 235 238 246 256 256 250 245 241 234 225 222 220 216 215
299 297 294 289 281 273 265 259 254 244 238 239 232 221 228 230 227 228 245 237 236 249 274 285 276 268 270 260 96 75 74 59 46 7 329 294 270 249 231 224 223 219 216
304 302 304 297 290 281 272 264 257 249 243 241 237 226 218 213 212 216 225 228 225 242 19 7 359 19 47 50 73 80 76 73 69 59 44 25 1 315 255 233 229 225 222
308 308 310 304 298 287 278 269 260 252 243 239 236 230 223 218 199 195 203 205 198 174 93 44 29 42 58 58 57 69 76 80 79 75 70 64 59 56 50 41 242 232 229
295 301 307 305 301 295 286 273 263 255 245 237 231 224 219 213 203 194 185 174 171 165 123 92 35 33 39 50 55 63 63 70 85 85 79 74 68 64 62 61 60 58 61
298 309 312 311 309 304 296 280 263 257 246 235 225 216 211 207 201 197 185 175 167 164 149 117 78 25 33 54 53 65 66 64 77 83 82 79 74 69 65 62 62 60 57
303 318 323 320 315 312 306 293 274 261 243 230 215 204 198 188 183 180 177 172 159 144 125 85 77 45 43 71 61 65 67 66 66 78 80 80 77 72 66 62 59 56 53
300 316 320 321 320 320 318 309 288 265 237 218 200 189 180 172 164 161 153 140 130 122 120 96 54 45 57 68 62 64 67 68 67 69 75 78 76 72 68 64 58 53 47
291 306 316 321 325 329 332 332 336 359 119 120 128 136 142 134 121 116 114 109 107 111 126 121 80 59 63 64 68 63 58 64 68 65 70 74 74 72 69 64 58 50 43
284 304 317 325 328 338 353 11 32 57 83 85 84 87 91 102 103 104 104 106 106 107 105 112 100 76 72 58 68 66 62 55 60 61 63 65 68 69 67 62 55 47 39
261 288 306 319 338 12 32 43 61 66 72 72 70 72 76 91 109 112 111 112 112 107 102 103 98 82 70 55 68 69 67 53 46 40 49 53 56 60 57 51 43 37 30
232 251 282 330 30 52 71 80 82 84 81 80 72 69 81 101 104 107 118 119 117 112 106 102 97 87 70 62 62 54 72 64 54 32 40 42 45 51 46 39 35 28 24
214 211 212 141 101 106 114 104 102 94 91 93 90 82 84 88 92 90 92 98 112 120 117 109 103 98 87 78 73 68 67 61 43 10 29 42 45 53 44 40 32 32 26
198 192 182 154 137 139 138 123 110 103 99 98 99 96 94 89 91 97 87 79 76 89 112 123 117 117 114 114 107 93 82 75 61 357 15 50 40 55 46 41 34 33 29
194 188 180 166 155 158 150 132 116 105 98 88 89 102 108 101 105 110 101 87 77 70 88 101 113 114 113 118 107 108 110 95 72 36 23 48 27 33 27 37 30 29 25
193 187 179 171 167 168 163 148 132 117 104 87 76 83 105 105 115 119 111 105 93 81 79 86 88 85 81 79 102 106 94 84 60 29 19 33 17 4 9 24 20 19 17
198 186 180 179 175 173 173 161 145 133 119 107 85 74 84 105 115 121 121 120 113 108 108 94 75 61 63 60 59 74 104 104 87 44 12 17 18 17 39 6 1 10 13
Height
1535 1535 1535 1535 1535 1535 1535 1535 1535 1535 1535 1535 1534 1534 1534 1534 1533 1534 1534 1534 1534 1534 1534 1534 1534 1534 1535 1535 1536 1536 1537 1537 1538 1539 1540 1541 1542 1544 1546 1548 1550 1552 1553
1531 1531 1531 1530 1530 1530 1530 1530 1529 1529 1529 1529 1529 1529 1529 1529 1529 1529 1529 1529 1529 1529 1529 1529 1530 1530 1530 1531 1531 1531 1532 1532 1533 1534 1535 1536 1538 1539 1541 1543 1545 1547 1549
1526 1526 1525 1524 1524 1524 1524 1524 1523 1523 1523 1523 1523 1524 1524 1524 1524 1524 1524 1524 1524 1524 1524 1524 1524 1525 1525 1526 1526 1526 1527 1528 1528 1529 1530 1531 1533 1534 1536 1538 1540 1542 1544
1520 1519 1518 1517 1517 1517 1517 1516 1516 1516 1516 1516 1516 1517 1517 1517 1518 1518 1518 1518 1518 1518 1518 1518 1518 1519 1520 1520 1521 1521 1522 1522 1523 1524 1525 1526 1527 1529 1530 1532 1534 1536 1539
1515 1513 1512 1510 1510 1509 1509 1509 1508 1508 1508 1508 1509 1509 1510 1510 1511 1511 1511 1511 1511 1511 1511 1511 1512 1512 1513 1514 1514 1515 1516 1517 1518 1519 1520 1520 1522 1523 1525 1526 1528 1531 1533
1510 1508 1506 1504 1503 1502 1502 1501 1501 1501 1501 1501 1502 1501 1502 1502 1502 1503 1504 1504 1504 1505 1505 1505 1505 1505 1506 1506 1507 1508 1509 1510 1511 1513 1514 1515 1516 1518 1519 1521 1523 1525 1527
1504 1502 1500 1498 1497 1495 1494 1494 1494 1493 1493 1494 1495 1494 1494 1495 1494 1495 1496 1497 1497 1498 1498 1497 1497 1497 1497 1498 1499 1501 1502 1503 1504 1506 1507 1509 1510 1512 1513 1515 1517 1519 1521
1498 1496 1493 1491 1490 1488 1487 1487 1487 1486 1485 1487 1488 1488 1487 1487 1486 1488 1488 1489 1490 1490 1490 1490 1489 1489 1489 1489 1491 1493 1495 1496 1498 1499 1501 1503 1504 1506 1507 1509 1511 1513 1515
1492 1489 1487 1484 1483 1481 1479 1479 1479 1479 1478 1479 1480 1482 1481 1479 1480 1480 1480 1482 1483 1483 1483 1483 1482 1481 1481 1481 1483 1485 1487 1490 1491 1493 1495 1497 1498 1499 1501 1503 1505 1506 1509
1486 1483 1480 1477 1475 1473 1472 1471 1471 1471 1471 1471 1473 1473 1474 1475 1476 1474 1474 1475 1476 1476 1477 1476 1476 1475 1475 1475 1476 1478 1480 1483 1485 1487 1489 1490 1492 1493 1495 1496 1498 1500 1502
1480 1477 1473 1470 1467 1466 1464 1463 1463 1463 1464 1464 1465 1465 1466 1467 1468 1469 1468 1469 1470 1470 1470 1471 1470 1470 1470 1470 1470 1472 1474 1477 1479 1481 1483 1484 1485 1486 1487 1489 1491 1493 1496
1474 1471 1467 1464 1461 1459 1457 1456 1456 1456 1456 1457 1457 1458 1459 1459 1460 1461 1463 1463 1465 1466 1466 1466 1466 1466 1466 1466 1466 1467 1469 1472 1474 1475 1477 1478 1479 1480 1481 1482 1484 1486 1489
1469 1465 1462 1458 1456 1454 1452 1451 1450 1450 1450 1450 1450 1451 1452 1453 1454 1456 1458 1459 1460 1462 1462 1463 1463 1463 1463 1463 1464 1465 1467 1469 1470 1471 1472 1473 1473 1474 1475 1477 1478 1480 1482
1465 1461 1458 1455 1452 1449 1448 1446 1446 1445 1445 1445 1445 1445 1446 1447 1449 1450 1453 1455 1456 1458 1459 1461 1461 1461 1462 1463 1464 1465 1466 1467 1468 1469 1469 1469 1469 1470 1471 1472 1474 1475 1477
1462 1459 1455 1452 1449 1447 1444 1443 1441 1440 1440 1440 1440 1440 1441 1443 1444 1446 1448 1450 1453 1454 1457 1458 1459 1460 1461 1462 1463 1464 1465 1466 1467 1467 1467 1467 1467 1468 1468 1469 1470 1472 1473
1460 1457 1454 1450 1447 1444 1442 1440 1438 1436 1436 1435 1435 1436 1437 1439 1440 1442 1444 1446 1448 1451 1453 1455 1457 1459 1461 1462 1463 1464 1464 1465 1465 1465 1465 1465 1466 1466 1467 1468 1469 1470 1471
1457 1454 1452 1449 1445 1442 1440 1437 1435 1433 1432 1432 1432 1433 1434 1435 1437 1439 1441 1443 1445 1448 1451 1455 1457 1460 1462 1463 1463 1464 1464 1464 1464 1464 1464 1464 1465 1465 1466 1467 1468 1468 1469
1455 1452 1450 1447 1444 1441 1438 1435 1433 1432 1431 1430 1430 1431 1432 1434 1435 1437 1439 1442 1444 1447 1451 1454 1458 1461 1463 1464 1464 1464 1464 1464 1464 1464 1464 1464 1464 1465 1465 1466 1466 1467 1467
1452 1450 1447 1445 1443 1439 1437 1434 1432 1431 1430 1430 1430 1431 1432 1433 1435 1437 1439 1442 1445 1449 1453 1455 1458 1461 1464 1465 1465 1465 1466 1466 1465 1465 1465 1465 1465 1465 1465 1465 1465 1465 1465
1449 1447 1445 1443 1441 1439 1436 1434 1433 1431 1431 1431 1431 1432 1433 1434 1436 1439 1441 1444 1448 1452 1455 1458 1460 1463 1464 1466 1466 1467 1467 1467 1467 1467 1467 1467 1467 1466 1465 1465 1465 1464 1463
1446 1444 1443 1441 1440 1438 1437 1435 1434 1433 1432 1432 1433 1434 1436 1437 1439 1442 1445 1448 1451 1454 1457 1459 1462 1464 1466 1467 1467 1468 1469 1469 1469 1469 1469 1468 1467 1467 1466 1465 1465 1464 1462
1442 1441 1441 1440 1439 1438 1437 1436 1435 1434 1435 1435 1436 1438 1439 1441 1443 1446 1449 1452 1454 1456 1458 1461 1463 1465 1466 1468 1468 1469 1469 1470 1469 1471 1470 1469 1468 1467 1466 1465 1465 1463 1461
1437 1437 1437 1437 1437 1437 1437 1437 1437 1437 1438 1439 1441 1442 1443 1445 1447 1449 1452 1455 1457 1459 1461 1463 1464 1466 1468 1469 1469 1469 1470 1470 1470 1471 1470 1469 1468 1467 1467 1466 1465 1463 1461
1432 1433 1434 1435 1435 1436 1437 1438 1438 1439 1441 1443 1445 1446 1447 1449 1451 1453 1454 1456 1459 1461 1463 1464 1466 1467 1469 1470 1470 1470 1470 1470 1471 1471 1470 1470 1469 1468 1468 1467 1465 1463 1461
1426 1427 1429 1431 1433 1435 1437 1438 1440 1441 1443 1445 1447 1448 1450 1451 1452 1454 1455 1457 1459 1461 1463 1465 1467 1468 1469 1470 1470 1471 1471 1471 1472 1472 1471 1470 1469 1469 1469 1468 1466 1464 1462
1419 1422 1424 1427 1430 1432 1435 1438 1440 1442 1444 1446 1447 1449 1450 1451 1453 1454 1456 1458 1459 1462 1464 1466 1467 1469 1470 1470 1471 1471 1472 1472 1472 1472 1472 1471 1470 1469 1469 1469 1467 1464 1462